Weather History for Bloomington, IL

Change the Weather History Date:

Friday, October 5, 2012

  Actual Average Record
Temperature  
Mean Temperature 43 °F -  
Max Temperature 47 °F 70 °F 88 °F (2007)
Min Temperature 37 °F 51 °F 33 °F (2004)
Degree Days  
Heating Degree Days 22    
Moisture  
Dew Point 40 °F    
Average Humidity 86    
Maximum Humidity 100    
Minimum Humidity 71    
Precipitation  
Precipitation 0.81 in - - ()
Sea Level Pressure  
Sea Level Pressure 30.20 in    
Wind  
Wind Speed 9 mph (NW)    
Max Wind Speed 15 mph    
Max Gust Speed -    
Visibility 8 miles    
Events Rain , Thunderstorm    
Averages and records for this station are not official NWS values.
T = Trace of Precipitation, MM = Missing Value Source: NWS Daily Summary

Daily Weather History Graph

Daily Weather History Graph

Search for Another Location

Airport:

Trip Planner

Search our weather history database for the weather conditions in past years. The results will help you decide how hot, cold, wet, or windy it might be!

Date:

Astronomy

Oct. 05, 2012 Rise Set
Actual Time 6:56 AM CDT 6:30 PM CDT
Civil Twilight 6:29 AM CDT 6:57 PM CDT
Nautical Twilight 5:57 AM CDT 7:29 PM CDT
Astronomical Twilight 5:26 AM CDT 8:00 PM CDT
Moon 9:52 PM CDT (10/5) 12:05 PM CDT (10/5)
Length of Visible Light 12h 28m
Length of Day
11h 33m
Waning Gibbous, 74% of the Moon is Illuminated
Oct 5
Waning Gibbous
Oct 8
Last Quarter
Oct 15
New
Oct 21
First Quarter
Oct 29
Full

Hourly Weather History & Observations

Time (CDT) Temp. Windchill Dew Point Humidity Pressure Visibility Wind Dir Wind Speed Gust Speed Precip Events Conditions
12:56 AM 47.8 °F - 45.0 °F 90% 30.18 in 10.0 mi West 8.1 mph - 0.01 in   Overcast
1:07 AM 48.2 °F - 44.6 °F 87% 30.19 in 4.0 mi West 8.1 mph - 0.05 in Rain , Thunderstorm Light Thunderstorms and Rain
1:18 AM 46.4 °F 42.4 °F 46.4 °F 100% 30.19 in 2.5 mi WNW 8.1 mph - 0.09 in Rain , Thunderstorm Thunderstorms and Rain
1:28 AM 46.4 °F 42.4 °F 46.4 °F 100% 30.20 in 3.0 mi WNW 8.1 mph - 0.12 in Rain Rain
1:43 AM 46.4 °F 40.7 °F 46.4 °F 100% 30.24 in 2.5 mi WNW 12.7 mph - 0.18 in Rain Heavy Rain
1:56 AM 46.9 °F - 46.9 °F 100% 30.21 in 2.5 mi NW 12.7 mph - 0.23 in Rain Rain
2:06 AM 46.4 °F 41.5 °F 44.6 °F 93% 30.20 in 2.0 mi NW 10.4 mph - 0.08 in Rain Heavy Rain
2:25 AM 46.4 °F 41.9 °F 44.6 °F 93% 30.18 in 6.0 mi North 9.2 mph - 0.13 in Rain Light Rain
2:32 AM 44.6 °F 39.2 °F 44.6 °F 100% 30.19 in 6.0 mi NNW 10.4 mph - 0.14 in Rain Rain
2:56 AM 45.0 °F 40.6 °F 43.9 °F 96% 30.21 in 3.0 mi NW 8.1 mph - 0.20 in Rain Rain
3:39 AM 44.6 °F 39.7 °F 42.8 °F 93% 30.19 in 2.5 mi NNW 9.2 mph - 0.10 in Rain Heavy Rain
3:43 AM 44.6 °F 40.2 °F 42.8 °F 93% 30.20 in 3.0 mi NNW 8.1 mph - 0.11 in Rain Rain
3:56 AM 43.9 °F 38.8 °F 41.9 °F 93% 30.20 in 6.0 mi NNW 9.2 mph - 0.12 in Rain Light Rain
4:56 AM 43.0 °F 38.8 °F 43.0 °F 100% 30.22 in 6.0 mi West 6.9 mph - 0.15 in Rain Light Rain
5:56 AM 43.0 °F 38.8 °F 41.9 °F 96% 30.20 in 7.0 mi NNW 6.9 mph - 0.08 in Rain Light Rain
6:56 AM 41.9 °F 39.0 °F 41.0 °F 97% 30.22 in 10.0 mi WNW 4.6 mph - 0.02 in   Mostly Cloudy
7:56 AM 43.9 °F 38.8 °F 39.9 °F 86% 30.23 in 10.0 mi NW 9.2 mph - N/A   Overcast
8:56 AM 43.0 °F 36.8 °F 37.9 °F 82% 30.20 in 10.0 mi North 11.5 mph - 0.00 in Rain Light Rain
9:56 AM 43.9 °F 38.3 °F 36.9 °F 76% 30.23 in 10.0 mi NW 10.4 mph - 0.00 in Rain Light Rain
10:56 AM 43.9 °F 39.3 °F 34.9 °F 71% 30.24 in 10.0 mi NW 8.1 mph - 0.00 in Rain Light Rain
11:56 AM 43.9 °F 39.3 °F 34.9 °F 71% 30.21 in 10.0 mi North 8.1 mph - 0.00 in   Overcast
12:56 PM 43.9 °F 39.9 °F 36.9 °F 76% 30.19 in 10.0 mi NW 6.9 mph - 0.00 in   Overcast
1:56 PM 43.9 °F 42.3 °F 34.9 °F 71% 30.17 in 10.0 mi Variable 3.5 mph - N/A   Overcast
2:56 PM 43.9 °F 37.9 °F 36.9 °F 76% 30.16 in 10.0 mi WNW 11.5 mph - 0.00 in   Overcast
3:56 PM 43.9 °F 38.8 °F 37.9 °F 80% 30.17 in 10.0 mi WNW 9.2 mph - 0.00 in   Mostly Cloudy
4:56 PM 43.9 °F 37.9 °F 34.9 °F 71% 30.19 in 10.0 mi WNW 11.5 mph - N/A   Mostly Cloudy
5:56 PM 43.0 °F 37.7 °F 34.9 °F 73% 30.19 in 10.0 mi WNW 9.2 mph - 0.00 in Rain Light Rain
6:56 PM 41.9 °F 36.9 °F 36.9 °F 82% 30.17 in 10.0 mi West 8.1 mph - 0.00 in   Mostly Cloudy
7:56 PM 41.0 °F 37.1 °F 34.0 °F 76% 30.16 in 10.0 mi West 5.8 mph - N/A   Mostly Cloudy
8:56 PM 41.0 °F 33.1 °F 34.0 °F 76% 30.18 in 10.0 mi WNW 15.0 mph - N/A   Overcast
9:56 PM 39.9 °F 32.9 °F 32.9 °F 76% 30.18 in 10.0 mi WNW 11.5 mph - N/A   Overcast
10:56 PM 38.8 °F 31.6 °F 32.0 °F 76% 30.19 in 10.0 mi West 11.5 mph - N/A   Clear
11:56 PM 37.9 °F 30.0 °F 32.0 °F 79% 30.19 in 10.0 mi West 12.7 mph - N/A   Clear